Sunlight Mountain, CO

8:27 AM MDT on August 19, 2017 (GMT -0600)
Sunlight Mountain

Weather History for K5SM - December, 2013

Change the Weather History Date:

Sunday, December 8, 2013

  Actual Average (KRIL) Record (KRIL)
Temperature  
Mean Temperature 4 °F -  
Max Temperature 12 °F 40 °F 61 °F (1939)
Min Temperature -5 °F 15 °F -24 °F (1978)
Degree Days  
Heating Degree Days 62    
Moisture  
Dew Point -1 °F    
Average Humidity 84    
Maximum Humidity 92    
Minimum Humidity 78    
Precipitation  
Precipitation 0.00 in - - ()
Sea Level Pressure  
Sea Level Pressure 29.60 in    
Wind  
Wind Speed 1 mph (WSW)    
Max Wind Speed 8 mph    
Max Gust Speed -    
Visibility 1 miles    
Events Snow    
Averages and records for this station are not official NWS values.
T = Trace of Precipitation, MM = Missing Value Source: NWS Daily Summary

Daily Weather History Graph

Daily Weather History Graph

Search for Another Location

Airport or City:

Trip Planner

Search our weather history database for the weather conditions in past years. The results will help you decide how hot, cold, wet, or windy it might be!

Date:

Astronomy

Dec. 08, 2013 Rise Set
Actual Time 7:17 AM MST 4:45 PM MST
Civil Twilight 6:47 AM MST 5:15 PM MST
Nautical Twilight 6:13 AM MST 5:49 PM MST
Astronomical Twilight 5:41 AM MST 6:21 PM MST
Moon 11:40 AM MST (12/8) 11:36 PM MST (12/8)
Length of Visible Light 10h 28m
Length of Day
9h 28m
Waxing Crescent, 40% of the Moon is Illuminated
Dec 8
Waxing Crescent
Dec 9
First Quarter
Dec 17
Full
Dec 25
Last Quarter
Jan 1
New

Hourly Weather History & Observations

Time (MST) Temp. Windchill Dew Point Humidity Pressure Visibility Wind Dir Wind Speed Gust Speed Precip Events Conditions
12:16 AM 10.4 °F - 8.6 °F 92% 29.48 in 0.5 mi Calm Calm - N/A Snow Snow
12:36 AM 10.4 °F - 8.6 °F 92% 29.48 in 0.2 mi Calm Calm - N/A Snow Heavy Snow
12:56 AM 12.2 °F - 8.6 °F 85% 29.46 in 0.2 mi Calm Calm - N/A Snow Heavy Snow
1:16 AM 10.4 °F - 8.6 °F 92% 29.44 in 0.5 mi Calm Calm - N/A Snow Heavy Snow
1:36 AM 10.4 °F - 8.6 °F 92% 29.45 in 0.5 mi Calm Calm - N/A Snow Heavy Snow
1:56 AM 10.4 °F - 8.6 °F 92% 29.44 in 0.5 mi Calm Calm - N/A Snow Snow
2:16 AM 10.4 °F - 8.6 °F 92% 29.44 in 0.5 mi Calm Calm - N/A Snow Heavy Snow
2:36 AM 10.4 °F - 8.6 °F 92% 29.46 in 0.5 mi Calm Calm - N/A Snow Snow
2:55 AM 10.4 °F 4.0 °F 6.8 °F 85% 29.45 in 0.2 mi South 3.5 mph - N/A Snow Snow
3:16 AM 8.6 °F 2.0 °F 5.0 °F 85% 29.46 in 0.8 mi South 3.5 mph - N/A Snow Snow
3:36 AM 8.6 °F 2.0 °F 5.0 °F 85% 29.46 in 0.5 mi SW 3.5 mph - N/A Snow Snow
3:56 AM 8.6 °F 2.0 °F 5.0 °F 85% 29.45 in 0.5 mi SSW 3.5 mph - N/A Snow Snow
4:16 AM 8.6 °F 0.1 °F 3.2 °F 79% 29.44 in 1.5 mi SW 4.6 mph - N/A Snow Light Snow
4:36 AM 6.8 °F - 3.2 °F 85% 29.45 in 2.0 mi Calm Calm - N/A Snow Light Snow
4:56 AM 6.8 °F - 3.2 °F 85% 29.46 in 1.0 mi Calm Calm - N/A Snow Light Snow
5:16 AM 6.8 °F - 3.2 °F 85% 29.44 in 3.0 mi Calm Calm - N/A Snow Light Snow
5:36 AM 5.0 °F -4.1 °F 1.4 °F 85% 29.46 in 2.0 mi SSW 4.6 mph - N/A Snow Light Snow
5:56 AM 5.0 °F - 1.4 °F 85% 29.47 in 1.2 mi Calm Calm - N/A Snow Light Snow
6:16 AM 5.0 °F -4.1 °F 1.4 °F 85% 29.49 in 0.2 mi WSW 4.6 mph - N/A Snow Heavy Snow
6:36 AM 5.0 °F -5.6 °F 1.4 °F 85% 29.51 in 0.2 mi West 5.8 mph - N/A Snow Heavy Snow
6:56 AM 5.0 °F -6.9 °F 1.4 °F 85% 29.52 in - West 6.9 mph - N/A   Overcast
7:16 AM 3.2 °F -10.3 °F -0.4 °F 85% 29.53 in - West 8.1 mph - N/A   Overcast
7:36 AM 3.2 °F -9.1 °F -0.4 °F 85% 29.55 in - West 6.9 mph - N/A   Overcast
7:56 AM 3.2 °F -7.8 °F -0.4 °F 85% 29.57 in - West 5.8 mph - N/A   Overcast
8:16 AM 3.2 °F -4.2 °F -0.4 °F 85% 29.57 in - SW 3.5 mph - N/A   Overcast
8:36 AM 3.2 °F -7.8 °F -0.4 °F 85% 29.59 in - West 5.8 mph - N/A   Overcast
8:56 AM 3.2 °F -7.8 °F -0.4 °F 85% 29.60 in - WSW 5.8 mph - N/A   Overcast
9:15 AM 3.2 °F -7.8 °F -0.4 °F 85% 29.62 in - WSW 5.8 mph - N/A   Overcast
9:35 AM 1.4 °F -9.9 °F -2.2 °F 85% 29.64 in - West 5.8 mph - N/A   Overcast
9:55 AM 1.4 °F -9.9 °F -2.2 °F 85% 29.65 in - West 5.8 mph - N/A   Overcast
10:16 AM 1.4 °F -9.9 °F -2.2 °F 85% 29.66 in - WSW 5.8 mph - N/A   Overcast
10:36 AM 3.2 °F -4.2 °F -0.4 °F 85% 29.66 in - SW 3.5 mph - N/A   Overcast
10:56 AM 3.2 °F -6.2 °F -0.4 °F 85% 29.66 in - WSW 4.6 mph - N/A   Unknown
11:16 AM 3.2 °F - -0.4 °F 85% 29.66 in - Calm Calm - N/A   Unknown
11:36 AM 3.2 °F -4.2 °F -0.4 °F 85% 29.66 in - WSW 3.5 mph - N/A   Overcast
11:57 AM 5.0 °F - 1.4 °F 85% 29.66 in - Calm Calm - N/A   Unknown
12:17 PM 5.0 °F - 1.4 °F 85% 29.66 in - Calm Calm - N/A   Unknown
12:37 PM 5.0 °F - 1.4 °F 85% 29.66 in - Calm Calm - N/A   Overcast
12:57 PM 5.0 °F - 1.4 °F 85% 29.66 in - Calm Calm - N/A   Overcast
1:17 PM 5.0 °F - 1.4 °F 85% 29.65 in - Calm Calm - N/A   Overcast
1:37 PM 5.0 °F - 3.2 °F 92% 29.64 in - Calm Calm - N/A   Overcast
1:57 PM 5.0 °F - 1.4 °F 85% 29.64 in - Calm Calm - N/A   Overcast
2:17 PM 5.0 °F - 1.4 °F 85% 29.64 in - Calm Calm - N/A   Overcast
2:36 PM 5.0 °F - 1.4 °F 85% 29.64 in - Calm Calm - N/A   Overcast
2:57 PM 5.0 °F - 1.4 °F 85% 29.64 in - Calm Calm - N/A   Unknown
3:16 PM 3.2 °F - -0.4 °F 85% 29.64 in - Calm Calm - N/A   Overcast
3:37 PM 3.2 °F - -0.4 °F 85% 29.65 in - Calm Calm - N/A   Overcast
3:57 PM 3.2 °F - -0.4 °F 85% 29.66 in - Calm Calm - N/A   Overcast
4:17 PM 1.4 °F - -2.2 °F 85% 29.66 in - Calm Calm - N/A   Overcast
4:37 PM -0.4 °F - -4.0 °F 85% 29.66 in - Calm Calm - N/A   Overcast
4:57 PM -0.4 °F - -5.8 °F 78% 29.66 in - Calm Calm - N/A   Overcast
5:16 PM -0.4 °F - -5.8 °F 78% 29.67 in - Calm Calm - N/A   Overcast
5:37 PM -0.4 °F - -5.8 °F 78% 29.67 in - Calm Calm - N/A   Overcast
5:57 PM -0.4 °F -8.3 °F -5.8 °F 78% 29.67 in - SSW 3.5 mph - N/A   Overcast
6:16 PM -0.4 °F - -5.8 °F 78% 29.68 in - Calm Calm - N/A   Unknown
6:36 PM -0.4 °F - -5.8 °F 78% 29.69 in - Calm Calm - N/A   Overcast
6:57 PM -0.4 °F - -5.8 °F 78% 29.69 in - Calm Calm - N/A   Overcast
7:17 PM -2.2 °F - -5.8 °F 85% 29.69 in - Calm Calm - N/A   Unknown
7:37 PM -2.2 °F - -5.8 °F 85% 29.69 in - Calm Calm - N/A   Unknown
7:56 PM -2.2 °F - -5.8 °F 85% 29.69 in - Calm Calm - N/A   Unknown
8:17 PM -2.2 °F - -7.6 °F 78% 29.69 in - Calm Calm - N/A   Overcast
8:37 PM -4.0 °F - -7.6 °F 85% 29.69 in - Calm Calm - N/A   Overcast
8:56 PM -4.0 °F - -7.6 °F 85% 29.69 in - Calm Calm - N/A   Overcast
9:16 PM -4.0 °F - -7.6 °F 85% 29.69 in - Calm Calm - N/A   Unknown
9:36 PM -4.0 °F - -9.4 °F 78% 29.69 in - Calm Calm - N/A   Scattered Clouds
9:56 PM -4.0 °F - -9.4 °F 78% 29.69 in - Calm Calm - N/A   Scattered Clouds
10:16 PM -5.8 °F - -9.4 °F 84% 29.71 in - Calm Calm - N/A   Clear
10:35 PM -4.0 °F - -9.4 °F 78% 29.71 in - Calm Calm - N/A   Scattered Clouds
10:56 PM -4.0 °F - -7.6 °F 85% 29.71 in - Calm Calm - N/A   Overcast
11:16 PM -4.0 °F - -9.4 °F 78% 29.72 in - Calm Calm - N/A   Overcast
11:36 PM -4.0 °F - -7.6 °F 85% 29.73 in - Calm Calm - N/A   Overcast
11:56 PM -4.0 °F - -9.4 °F 78% 29.73 in - Calm Calm - N/A   Overcast